Airfield :
LOGIN :

Register | Disclaimer

   EN    FR    IT 

 










Legend :    VFR   Marginal VFR   IFR   Intensive IFR   Very Intensive IFR
Visi :
Ceiling :
>= 8 km
>= 3000ft
5 to 8 km
1000 to 3000 ft
1500m to 5 km
500 to 1000 ft
800 to 1500m
200 to 500 ft
< 800m
< 200 ft
Symbols :   Thunderstorms  Fog  Heavy snow  Heavy precipitations  Wind > 20 kt
SIGMETs :     Misc.  Thunderstorms  Icing  Turbulence  Mountain Waves  Volcanic Ashes






- Airport Elevation : 1830 ft


EBLB - Butgenbach Elsenborn

CURRENT METAR :
  • 232125Z AUTO 03005KT 1900 BR OVC004/// 12/11 Q1020 YLO

EXPIRED METARs :
  • 232055Z AUTO 02005KT 1900 BR OVC004/// 12/12 Q1020 YLO
  • 232025Z AUTO 02004KT 2100 BR OVC005/// 12/12 Q1020 YLO
  • 231955Z AUTO 01004KT 2700 BR BKN007/// 13/12 Q1021 YLO
  • 231925Z AUTO 02004KT 3400 BR BKN008/// 13/12 Q1020 YLO
  • 231855Z AUTO 05004KT 5000 OVC009/// 13/12 Q1020 GRN

Expired Forecast.



MET'MAP, your aeronautical weather chart ! - Copyright ORBIFLY December 2007 - Disclaimer

ORBIFLY MET'MAP TEAM :

Programming & Development : Alexandra Zaïnal
Concept & original design : Baudouin d'Aumeries
Assistance for programming : Marc-Olivier Méhu
Technical & hardware support : Manuel Goepfert

Contact : metmap@orbifly.com




SOURCES & CREDITS :

   NOAA